QPF
0.01 0.02 0.02 0.01 0.01 0.00 0.00 0.00 0.00 0.00 0.00 0.00 0.01 0.01 0.00 0.00 0.01 0.01 0.01 0.01 0.01 0.01 0.01 0.01 0.01 0.01 0.01 0.01 0.02 0.03 0.02 0.03 0.03 0.02 0.02 0.01 0.02 0.02 0.03 0.04 0.05 0.06 0.09 0.10
0.01 0.01 0.01 0.01 0.01 0.01 0.01 0.01 0.01 0.01 0.00 0.01 0.01 0.01 0.00 0.00 0.00 0.00 0.00 0.01 0.01 0.01 0.01 0.01 0.01 0.01 0.01 0.01 0.02 0.02 0.03 0.03 0.03 0.02 0.01 0.02 0.02 0.02 0.03 0.03 0.04 0.05 0.07 0.09
0.01 0.01 0.00 0.01 0.01 0.02 0.02 0.01 0.01 0.01 0.01 0.01 0.01 0.01 0.00 0.00 0.00 0.00 0.00 0.00 0.00 0.00 0.00 0.00 0.00 0.01 0.01 0.01 0.02 0.02 0.02 0.03 0.04 0.03 0.02 0.03 0.02 0.02 0.02 0.02 0.03 0.04 0.05 0.06
0.02 0.01 0.01 0.01 0.01 0.01 0.01 0.01 0.01 0.02 0.01 0.01 0.01 0.02 0.01 0.00 0.00 0.00 0.00 0.00 0.00 0.00 0.00 0.00 0.00 0.00 0.01 0.02 0.02 0.02 0.03 0.03 0.04 0.05 0.04 0.04 0.04 0.02 0.01 0.01 0.02 0.03 0.03 0.04
0.01 0.01 0.01 0.01 0.01 0.01 0.01 0.01 0.01 0.02 0.02 0.02 0.01 0.01 0.01 0.00 0.00 0.00 0.00 0.00 0.00 0.00 0.01 0.01 0.01 0.00 0.01 0.01 0.03 0.03 0.04 0.04 0.05 0.06 0.06 0.06 0.05 0.04 0.02 0.02 0.01 0.02 0.02 0.03
0.01 0.01 0.01 0.01 0.01 0.01 0.01 0.01 0.01 0.01 0.03 0.03 0.01 0.00 0.00 0.00 0.00 0.00 0.00 0.00 0.00 0.00 0.00 0.00 0.00 0.00 0.01 0.01 0.02 0.04 0.05 0.05 0.04 0.05 0.06 0.07 0.07 0.06 0.04 0.03 0.02 0.02 0.02 0.02
0.00 0.00 0.00 0.00 0.01 0.01 0.01 0.02 0.02 0.02 0.02 0.01 0.00 0.00 0.00 0.00 0.00 0.00 0.00 0.00 0.00 0.00 0.00 0.00 0.00 0.00 0.00 0.01 0.01 0.03 0.05 0.06 0.05 0.04 0.05 0.07 0.08 0.07 0.05 0.04 0.04 0.04 0.02 0.02
0.01 0.00 0.00 0.00 0.00 0.01 0.01 0.02 0.02 0.02 0.01 0.00 0.00 0.00 0.00 0.00 0.00 0.00 0.00 0.00 0.00 0.00 0.00 0.00 0.00 0.00 0.00 0.01 0.01 0.02 0.04 0.05 0.05 0.04 0.04 0.06 0.08 0.07 0.07 0.06 0.05 0.05 0.05 0.04
0.01 0.01 0.00 0.00 0.00 0.01 0.01 0.01 0.01 0.03 0.02 0.01 0.00 0.00 0.00 0.00 0.00 0.00 0.00 0.00 0.00 0.00 0.00 0.00 0.00 0.00 0.00 0.01 0.01 0.02 0.03 0.04 0.05 0.05 0.05 0.05 0.07 0.07 0.07 0.06 0.05 0.05 0.05 0.04
0.02 0.02 0.01 0.00 0.00 0.00 0.01 0.01 0.02 0.03 0.03 0.01 0.01 0.00 0.00 0.00 0.00 0.00 0.00 0.00 0.00 0.00 0.00 0.00 0.00 0.00 0.00 0.01 0.01 0.01 0.02 0.04 0.04 0.06 0.06 0.05 0.06 0.06 0.05 0.06 0.06 0.06 0.06 0.05
0.02 0.03 0.02 0.00 0.00 0.00 0.01 0.01 0.02 0.03 0.02 0.02 0.01 0.01 0.00 0.00 0.00 0.00 0.00 0.00 0.00 0.00 0.00 0.00 0.00 0.00 0.00 0.01 0.01 0.01 0.01 0.03 0.04 0.05 0.06 0.06 0.06 0.07 0.06 0.05 0.06 0.06 0.07 0.06
0.02 0.03 0.02 0.01 0.00 0.00 0.00 0.01 0.01 0.03 0.03 0.02 0.02 0.01 0.00 0.00 0.00 0.00 0.00 0.00 0.00 0.00 0.00 0.00 0.00 0.00 0.00 0.01 0.01 0.01 0.01 0.01 0.02 0.03 0.04 0.06 0.06 0.05 0.06 0.05 0.05 0.05 0.05 0.05
0.02 0.04 0.03 0.02 0.01 0.00 0.01 0.00 0.00 0.01 0.03 0.02 0.02 0.01 0.00 0.00 0.00 0.00 0.00 0.00 0.00 0.00 0.00 0.01 0.01 0.01 0.01 0.01 0.01 0.02 0.01 0.01 0.01 0.02 0.02 0.04 0.05 0.04 0.04 0.05 0.05 0.04 0.05 0.04
0.04 0.04 0.02 0.02 0.01 0.01 0.01 0.00 0.00 0.02 0.03 0.02 0.01 0.01 0.00 0.00 0.00 0.00 0.00 0.01 0.01 0.00 0.01 0.01 0.01 0.01 0.01 0.01 0.01 0.02 0.02 0.02 0.01 0.01 0.02 0.02 0.03 0.04 0.03 0.04 0.05 0.04 0.04 0.04
0.04 0.04 0.01 0.01 0.00 0.01 0.01 0.00 0.00 0.01 0.01 0.01 0.01 0.01 0.01 0.00 0.00 0.00 0.00 0.01 0.01 0.01 0.01 0.01 0.01 0.02 0.02 0.02 0.02 0.02 0.02 0.02 0.02 0.02 0.02 0.02 0.02 0.03 0.04 0.03 0.04 0.04 0.03 0.03
0.04 0.03 0.02 0.01 0.00 0.01 0.01 0.00 0.00 0.00 0.01 0.01 0.01 0.01 0.00 0.00 0.00 0.00 0.01 0.01 0.02 0.02 0.01 0.01 0.01 0.01 0.02 0.03 0.03 0.03 0.03 0.03 0.03 0.02 0.02 0.02 0.02 0.02 0.03 0.04 0.04 0.04 0.04 0.04
0.04 0.03 0.03 0.01 0.00 0.01 0.01 0.01 0.00 0.00 0.01 0.01 0.01 0.01 0.01 0.01 0.01 0.01 0.01 0.01 0.02 0.02 0.01 0.01 0.01 0.01 0.01 0.02 0.03 0.04 0.03 0.03 0.03 0.03 0.03 0.03 0.02 0.02 0.02 0.04 0.04 0.05 0.05 0.05
0.03 0.04 0.05 0.03 0.02 0.02 0.01 0.00 0.00 0.00 0.01 0.01 0.01 0.01 0.01 0.01 0.01 0.01 0.01 0.02 0.02 0.02 0.02 0.02 0.01 0.02 0.02 0.02 0.03 0.04 0.04 0.04 0.04 0.04 0.04 0.04 0.04 0.04 0.03 0.03 0.04 0.05 0.06 0.06
0.02 0.04 0.06 0.04 0.03 0.01 0.01 0.00 0.00 0.01 0.01 0.01 0.01 0.01 0.01 0.01 0.02 0.02 0.01 0.02 0.02 0.03 0.03 0.03 0.02 0.02 0.02 0.02 0.02 0.04 0.05 0.05 0.05 0.05 0.05 0.06 0.05 0.05 0.04 0.04 0.04 0.04 0.05 0.06
0.02 0.03 0.06 0.05 0.04 0.02 0.01 0.01 0.01 0.01 0.02 0.01 0.01 0.02 0.01 0.01 0.02 0.02 0.02 0.02 0.02 0.03 0.03 0.03 0.03 0.02 0.02 0.02 0.02 0.03 0.05 0.06 0.06 0.06 0.06 0.05 0.06 0.06 0.05 0.05 0.04 0.04 0.04 0.05
0.01 0.03 0.04 0.04 0.04 0.02 0.01 0.01 0.01 0.02 0.02 0.01 0.01 0.02 0.01 0.01 0.01 0.02 0.02 0.02 0.02 0.03 0.03 0.03 0.03 0.03 0.03 0.03 0.03 0.03 0.04 0.05 0.06 0.06 0.06 0.06 0.05 0.05 0.06 0.05 0.05 0.04 0.04 0.05
0.01 0.02 0.03 0.03 0.04 0.03 0.01 0.00 0.01 0.01 0.01 0.01 0.01 0.01 0.02 0.01 0.01 0.01 0.02 0.02 0.02 0.03 0.03 0.03 0.03 0.03 0.03 0.03 0.03 0.03 0.04 0.05 0.06 0.06 0.06 0.07 0.06 0.05 0.05 0.06 0.05 0.05 0.05 0.05
0.01 0.01 0.02 0.02 0.02 0.01 0.01 0.01 0.01 0.01 0.01 0.01 0.01 0.02 0.02 0.01 0.01 0.01 0.02 0.02 0.02 0.03 0.03 0.03 0.03 0.03 0.03 0.03 0.04 0.04 0.04 0.05 0.05 0.06 0.06 0.06 0.07 0.06 0.05 0.05 0.05 0.05 0.05 0.05
0.01 0.00 0.01 0.01 0.01 0.01 0.01 0.01 0.01 0.01 0.01 0.01 0.01 0.01 0.02 0.02 0.02 0.02 0.02 0.02 0.02 0.02 0.02 0.03 0.03 0.03 0.03 0.03 0.03 0.04 0.04 0.04 0.05 0.05 0.06 0.06 0.06 0.06 0.06 0.05 0.05 0.05 0.05 0.05
0.01 0.01 0.01 0.01 0.01 0.01 0.01 0.01 0.01 0.01 0.01 0.01 0.01 0.01 0.01 0.02 0.02 0.02 0.02 0.02 0.02 0.02 0.02 0.02 0.02 0.03 0.03 0.03 0.03 0.03 0.04 0.04 0.04 0.04 0.05 0.05 0.05 0.06 0.06 0.05 0.05 0.05 0.04 0.04
0.01 0.01 0.02 0.02 0.01 0.01 0.01 0.01 0.01 0.01 0.01 0.02 0.02 0.02 0.02 0.02 0.02 0.02 0.02 0.02 0.02 0.02 0.02 0.02 0.02 0.02 0.03 0.02 0.03 0.03 0.03 0.04 0.04 0.04 0.04 0.04 0.04 0.05 0.05 0.05 0.05 0.05 0.04 0.04
MSLP
1013.17 1013.29 1013.36 1013.39 1013.39 1013.36 1013.33 1013.29 1013.27 1013.26 1013.28 1013.33 1013.43 1013.62 1013.91 1014.35 1014.98 1015.83 1016.90 1018.20 1019.67 1021.25 1022.86 1024.39 1025.75 1026.87 1027.71 1028.25 1028.54 1028.64 1028.63 1028.61 1028.66 1028.82 1029.12 1029.52 1029.99 1030.45 1030.85 1031.12 1031.25 1031.23 1031.10 1030.89
1013.18 1013.24 1013.23 1013.17 1013.06 1012.93 1012.78 1012.66 1012.58 1012.55 1012.59 1012.71 1012.91 1013.21 1013.64 1014.22 1014.98 1015.93 1017.09 1018.44 1019.94 1021.54 1023.15 1024.67 1026.02 1027.13 1027.95 1028.48 1028.76 1028.85 1028.84 1028.82 1028.86 1029.03 1029.32 1029.73 1030.21 1030.68 1031.09 1031.38 1031.52 1031.51 1031.38 1031.18
1013.16 1013.18 1013.13 1013.00 1012.81 1012.58 1012.37 1012.19 1012.08 1012.07 1012.17 1012.38 1012.71 1013.15 1013.73 1014.44 1015.31 1016.33 1017.53 1018.88 1020.35 1021.90 1023.45 1024.92 1026.22 1027.30 1028.11 1028.65 1028.95 1029.06 1029.07 1029.07 1029.11 1029.27 1029.55 1029.94 1030.39 1030.84 1031.24 1031.52 1031.67 1031.68 1031.57 1031.39
1013.17 1013.17 1013.08 1012.91 1012.67 1012.40 1012.14 1011.94 1011.85 1011.89 1012.07 1012.40 1012.87 1013.47 1014.18 1015.01 1015.96 1017.01 1018.19 1019.47 1020.85 1022.29 1023.72 1025.08 1026.31 1027.35 1028.16 1028.73 1029.07 1029.25 1029.31 1029.34 1029.41 1029.56 1029.81 1030.15 1030.55 1030.95 1031.31 1031.58 1031.72 1031.75 1031.67 1031.54
1013.23 1013.23 1013.13 1012.94 1012.67 1012.38 1012.11 1011.93 1011.88 1011.99 1012.28 1012.74 1013.36 1014.10 1014.94 1015.86 1016.84 1017.88 1018.99 1020.16 1021.38 1022.64 1023.91 1025.14 1026.28 1027.27 1028.09 1028.70 1029.12 1029.39 1029.53 1029.63 1029.73 1029.88 1030.10 1030.38 1030.71 1031.05 1031.35 1031.58 1031.72 1031.76 1031.72 1031.63
1013.36 1013.37 1013.27 1013.07 1012.79 1012.50 1012.24 1012.09 1012.10 1012.30 1012.71 1013.31 1014.07 1014.95 1015.90 1016.88 1017.87 1018.86 1019.85 1020.86 1021.89 1022.96 1024.04 1025.11 1026.13 1027.08 1027.90 1028.57 1029.08 1029.46 1029.71 1029.90 1030.05 1030.21 1030.41 1030.64 1030.90 1031.16 1031.40 1031.59 1031.71 1031.76 1031.75 1031.70
1013.56 1013.58 1013.48 1013.27 1012.99 1012.70 1012.46 1012.35 1012.43 1012.73 1013.26 1013.99 1014.89 1015.89 1016.93 1017.96 1018.94 1019.86 1020.72 1021.56 1022.38 1023.23 1024.11 1025.01 1025.92 1026.81 1027.63 1028.36 1028.98 1029.47 1029.84 1030.12 1030.34 1030.53 1030.71 1030.90 1031.09 1031.29 1031.47 1031.61 1031.71 1031.77 1031.78 1031.77
1013.86 1013.86 1013.74 1013.52 1013.22 1012.92 1012.70 1012.63 1012.77 1013.17 1013.81 1014.68 1015.70 1016.82 1017.94 1019.01 1019.98 1020.83 1021.57 1022.24 1022.87 1023.52 1024.20 1024.94 1025.73 1026.55 1027.36 1028.13 1028.82 1029.42 1029.90 1030.27 1030.56 1030.79 1030.97 1031.13 1031.28 1031.42 1031.55 1031.66 1031.74 1031.79 1031.82 1031.83
1014.23 1014.20 1014.04 1013.77 1013.44 1013.13 1012.91 1012.87 1013.08 1013.56 1014.31 1015.29 1016.44 1017.66 1018.87 1019.98 1020.95 1021.76 1022.41 1022.95 1023.42 1023.89 1024.40 1024.98 1025.65 1026.39 1027.16 1027.94 1028.68 1029.34 1029.89 1030.34 1030.69 1030.95 1031.14 1031.29 1031.42 1031.52 1031.61 1031.69 1031.75 1031.80 1031.83 1031.85
1014.68 1014.59 1014.36 1014.03 1013.66 1013.32 1013.09 1013.08 1013.34 1013.90 1014.74 1015.83 1017.08 1018.40 1019.70 1020.87 1021.87 1022.67 1023.27 1023.72 1024.08 1024.42 1024.79 1025.23 1025.78 1026.42 1027.12 1027.86 1028.59 1029.26 1029.84 1030.32 1030.69 1030.98 1031.18 1031.33 1031.44 1031.52 1031.59 1031.65 1031.71 1031.75 1031.78 1031.81
1015.20 1015.03 1014.72 1014.32 1013.89 1013.52 1013.30 1013.31 1013.61 1014.24 1015.17 1016.35 1017.70 1019.11 1020.49 1021.73 1022.78 1023.60 1024.20 1024.62 1024.92 1025.17 1025.43 1025.76 1026.18 1026.70 1027.29 1027.94 1028.59 1029.20 1029.75 1030.20 1030.57 1030.84 1031.04 1031.18 1031.28 1031.36 1031.42 1031.48 1031.53 1031.57 1031.61 1031.64
1015.77 1015.51 1015.13 1014.66 1014.20 1013.81 1013.60 1013.64 1014.00 1014.69 1015.69 1016.95 1018.37 1019.86 1021.31 1022.63 1023.73 1024.60 1025.23 1025.66 1025.94 1026.14 1026.33 1026.55 1026.85 1027.23 1027.68 1028.18 1028.69 1029.19 1029.63 1030.01 1030.31 1030.54 1030.71 1030.83 1030.93 1031.01 1031.07 1031.13 1031.19 1031.24 1031.29 1031.32
1016.36 1016.03 1015.59 1015.09 1014.62 1014.25 1014.08 1014.18 1014.60 1015.36 1016.42 1017.74 1019.22 1020.76 1022.26 1023.62 1024.77 1025.69 1026.36 1026.81 1027.10 1027.28 1027.41 1027.55 1027.72 1027.95 1028.23 1028.55 1028.89 1029.21 1029.50 1029.75 1029.95 1030.10 1030.22 1030.31 1030.39 1030.46 1030.54 1030.61 1030.68 1030.74 1030.80 1030.85
1016.92 1016.55 1016.09 1015.62 1015.19 1014.90 1014.81 1015.00 1015.52 1016.34 1017.46 1018.82 1020.32 1021.87 1023.37 1024.74 1025.92 1026.85 1027.55 1028.03 1028.33 1028.49 1028.58 1028.64 1028.70 1028.78 1028.88 1029.00 1029.13 1029.26 1029.36 1029.45 1029.51 1029.56 1029.61 1029.65 1029.71 1029.77 1029.84 1029.93 1030.01 1030.09 1030.16 1030.23
1017.42 1017.05 1016.64 1016.25 1015.94 1015.78 1015.83 1016.16 1016.78 1017.69 1018.86 1020.23 1021.71 1023.23 1024.69 1026.02 1027.15 1028.07 1028.76 1029.23 1029.52 1029.67 1029.71 1029.70 1029.65 1029.59 1029.52 1029.45 1029.38 1029.30 1029.22 1029.13 1029.05 1028.98 1028.94 1028.93 1028.94 1028.99 1029.06 1029.15 1029.24 1029.33 1029.42 1029.50
1017.82 1017.52 1017.21 1016.97 1016.84 1016.88 1017.13 1017.63 1018.39 1019.40 1020.60 1021.96 1023.39 1024.82 1026.18 1027.40 1028.44 1029.28 1029.90 1030.33 1030.58 1030.69 1030.68 1030.60 1030.46 1030.28 1030.07 1029.83 1029.58 1029.32 1029.06 1028.82 1028.60 1028.42 1028.29 1028.21 1028.19 1028.21 1028.27 1028.35 1028.44 1028.54 1028.64 1028.73
1018.12 1017.94 1017.80 1017.77 1017.88 1018.17 1018.66 1019.37 1020.28 1021.38 1022.61 1023.93 1025.27 1026.57 1027.78 1028.83 1029.71 1030.41 1030.92 1031.25 1031.43 1031.47 1031.41 1031.26 1031.04 1030.77 1030.45 1030.09 1029.70 1029.30 1028.91 1028.54 1028.21 1027.93 1027.72 1027.58 1027.51 1027.50 1027.53 1027.60 1027.68 1027.77 1027.86 1027.95
1018.37 1018.34 1018.43 1018.65 1019.04 1019.61 1020.36 1021.28 1022.35 1023.54 1024.78 1026.04 1027.25 1028.39 1029.39 1030.23 1030.91 1031.42 1031.76 1031.95 1032.03 1031.99 1031.86 1031.64 1031.37 1031.03 1030.64 1030.20 1029.74 1029.25 1028.77 1028.32 1027.91 1027.56 1027.29 1027.09 1026.97 1026.91 1026.91 1026.94 1026.99 1027.06 1027.13 1027.20
1018.64 1018.80 1019.13 1019.63 1020.30 1021.15 1022.15 1023.27 1024.48 1025.72 1026.95 1028.12 1029.19 1030.13 1030.91 1031.51 1031.95 1032.24 1032.40 1032.44 1032.38 1032.24 1032.04 1031.78 1031.46 1031.09 1030.67 1030.21 1029.71 1029.19 1028.67 1028.17 1027.72 1027.32 1027.00 1026.75 1026.58 1026.47 1026.42 1026.40 1026.41 1026.44 1026.46 1026.50
1019.04 1019.41 1019.97 1020.73 1021.67 1022.76 1023.96 1025.24 1026.54 1027.80 1028.99 1030.05 1030.95 1031.68 1032.23 1032.59 1032.80 1032.87 1032.84 1032.71 1032.53 1032.30 1032.04 1031.73 1031.40 1031.02 1030.60 1030.15 1029.65 1029.14 1028.62 1028.12 1027.64 1027.22 1026.86 1026.56 1026.33 1026.17 1026.05 1025.97 1025.92 1025.88 1025.86 1025.83
1019.68 1020.25 1021.03 1022.00 1023.14 1024.41 1025.76 1027.12 1028.44 1029.67 1030.76 1031.68 1032.41 1032.94 1033.26 1033.41 1033.41 1033.29 1033.09 1032.83 1032.54 1032.24 1031.92 1031.60 1031.26 1030.90 1030.51 1030.08 1029.62 1029.14 1028.64 1028.14 1027.67 1027.23 1026.83 1026.49 1026.20 1025.97 1025.78 1025.63 1025.50 1025.39 1025.29 1025.20
1020.65 1021.38 1022.33 1023.46 1024.73 1026.08 1027.47 1028.83 1030.10 1031.24 1032.20 1032.96 1033.50 1033.83 1033.97 1033.94 1033.78 1033.51 1033.19 1032.84 1032.48 1032.13 1031.79 1031.46 1031.13 1030.80 1030.44 1030.06 1029.64 1029.19 1028.72 1028.24 1027.77 1027.31 1026.88 1026.49 1026.14 1025.83 1025.56 1025.32 1025.11 1024.92 1024.75 1024.59
1021.96 1022.83 1023.89 1025.09 1026.40 1027.75 1029.08 1030.35 1031.49 1032.46 1033.25 1033.83 1034.19 1034.36 1034.35 1034.18 1033.91 1033.56 1033.17 1032.78 1032.39 1032.03 1031.69 1031.38 1031.08 1030.77 1030.45 1030.11 1029.73 1029.31 1028.86 1028.39 1027.91 1027.42 1026.95 1026.50 1026.08 1025.69 1025.34 1025.02 1024.72 1024.45 1024.20 1023.98
1023.57 1024.53 1025.64 1026.84 1028.10 1029.35 1030.54 1031.62 1032.56 1033.34 1033.92 1034.30 1034.50 1034.53 1034.41 1034.17 1033.85 1033.47 1033.08 1032.69 1032.32 1031.98 1031.67 1031.38 1031.11 1030.83 1030.54 1030.22 1029.86 1029.46 1029.02 1028.54 1028.03 1027.51 1026.99 1026.48 1025.99 1025.53 1025.09 1024.69 1024.31 1023.97 1023.65 1023.37
1025.36 1026.37 1027.47 1028.60 1029.73 1030.81 1031.79 1032.64 1033.34 1033.87 1034.24 1034.44 1034.50 1034.42 1034.24 1033.97 1033.66 1033.31 1032.95 1032.61 1032.28 1031.99 1031.71 1031.46 1031.21 1030.96 1030.68 1030.36 1030.00 1029.60 1029.14 1028.64 1028.10 1027.54 1026.96 1026.39 1025.83 1025.30 1024.79 1024.31 1023.87 1023.46 1023.09 1022.75
1027.18 1028.19 1029.22 1030.24 1031.19 1032.05 1032.78 1033.37 1033.81 1034.11 1034.28 1034.33 1034.27 1034.13 1033.93 1033.68 1033.41 1033.12 1032.84 1032.56 1032.30 1032.06 1031.82 1031.59 1031.35 1031.10 1030.81 1030.48 1030.10 1029.67 1029.18 1028.65 1028.07 1027.46 1026.83 1026.20 1025.58 1024.98 1024.41 1023.88 1023.38 1022.92 1022.51 1022.12
Thickness
5568 5560 5557 5559 5560 5562 5563 5562 5562 5567 5566 5560 5558 5563 5567 5564 5562 5561 5559 5557 5554 5551 5549 5545 5543 5541 5540 5540 5540 5539 5539 5539 5539 5540 5540 5541 5542 5543 5544 5545 5545 5546 5548 5549
5556 5550 5555 5557 5557 5554 5552 5549 5552 5556 5556 5551 5548 5553 5561 5561 5557 5555 5553 5549 5545 5542 5539 5536 5532 5530 5529 5529 5529 5529 5528 5528 5528 5528 5528 5529 5530 5531 5532 5532 5533 5534 5535 5536
5546 5547 5551 5549 5545 5544 5543 5539 5538 5538 5540 5540 5534 5539 5552 5554 5550 5546 5544 5541 5538 5534 5529 5526 5523 5520 5518 5518 5518 5518 5517 5517 5517 5517 5516 5516 5518 5518 5519 5520 5521 5521 5522 5523
5540 5541 5540 5537 5534 5532 5530 5532 5530 5527 5519 5522 5527 5519 5545 5545 5539 5536 5532 5529 5527 5523 5520 5515 5513 5510 5508 5507 5507 5507 5506 5505 5505 5505 5504 5505 5506 5507 5508 5509 5509 5509 5509 5510
5530 5531 5527 5525 5524 5522 5521 5521 5518 5515 5510 5507 5515 5507 5525 5533 5530 5528 5524 5520 5517 5513 5509 5505 5502 5500 5498 5496 5495 5495 5494 5493 5492 5492 5492 5493 5494 5495 5496 5496 5497 5497 5496 5496
5522 5522 5519 5517 5516 5514 5510 5508 5506 5503 5496 5493 5511 5502 5513 5520 5525 5524 5517 5511 5507 5504 5499 5495 5491 5489 5486 5484 5483 5482 5481 5480 5479 5479 5480 5481 5482 5482 5483 5483 5484 5484 5484 5484
5514 5513 5510 5508 5503 5502 5498 5491 5489 5489 5484 5497 5515 5503 5506 5513 5515 5513 5507 5501 5497 5493 5488 5482 5478 5476 5474 5471 5470 5469 5468 5467 5466 5466 5467 5468 5469 5470 5471 5471 5471 5471 5471 5471
5506 5504 5501 5498 5495 5490 5490 5487 5479 5480 5489 5500 5504 5494 5502 5504 5500 5497 5494 5489 5485 5480 5476 5471 5467 5464 5461 5459 5458 5456 5455 5454 5453 5453 5454 5454 5455 5456 5457 5458 5459 5459 5459 5459
5496 5496 5495 5492 5490 5485 5482 5477 5481 5470 5470 5468 5486 5495 5492 5491 5486 5483 5480 5476 5471 5466 5463 5459 5455 5452 5450 5448 5446 5445 5443 5442 5441 5440 5441 5442 5442 5443 5443 5444 5445 5446 5446 5446
5486 5478 5480 5478 5475 5473 5472 5471 5462 5457 5457 5462 5481 5490 5487 5479 5475 5470 5464 5460 5456 5451 5448 5445 5443 5440 5438 5436 5434 5433 5431 5430 5429 5429 5429 5429 5429 5430 5430 5430 5430 5432 5432 5432
5475 5465 5465 5464 5460 5462 5458 5456 5454 5453 5454 5452 5455 5474 5478 5474 5468 5460 5454 5448 5442 5438 5435 5432 5429 5427 5425 5423 5421 5420 5419 5418 5417 5416 5417 5416 5416 5416 5416 5417 5416 5417 5418 5419
5464 5457 5454 5459 5459 5458 5456 5453 5447 5440 5443 5443 5441 5454 5459 5456 5453 5448 5441 5435 5431 5426 5422 5419 5416 5414 5411 5410 5408 5407 5406 5405 5404 5404 5403 5403 5403 5403 5403 5403 5403 5403 5404 5405
5452 5443 5442 5450 5443 5437 5437 5440 5438 5432 5428 5429 5429 5444 5442 5438 5435 5432 5427 5422 5418 5413 5409 5405 5402 5400 5398 5397 5395 5394 5393 5392 5391 5391 5390 5390 5389 5389 5389 5389 5389 5389 5390 5391
5445 5436 5436 5445 5449 5435 5427 5427 5425 5419 5414 5420 5431 5440 5431 5425 5419 5415 5411 5407 5403 5400 5396 5392 5390 5387 5386 5384 5383 5381 5380 5379 5378 5377 5377 5376 5377 5377 5377 5376 5376 5376 5376 5378
5432 5425 5429 5432 5435 5431 5427 5424 5418 5412 5416 5414 5426 5426 5429 5417 5409 5404 5399 5395 5391 5387 5384 5380 5378 5375 5373 5371 5369 5368 5367 5366 5365 5364 5363 5363 5363 5363 5363 5363 5363 5363 5363 5363
5420 5416 5417 5416 5424 5421 5419 5421 5417 5411 5407 5406 5408 5410 5412 5401 5396 5390 5386 5384 5379 5375 5373 5370 5367 5364 5361 5359 5357 5355 5355 5354 5352 5351 5351 5350 5350 5350 5350 5350 5349 5349 5349 5348
5410 5405 5403 5410 5411 5406 5407 5413 5409 5405 5402 5396 5395 5401 5393 5386 5381 5377 5374 5371 5366 5363 5361 5358 5355 5352 5349 5346 5345 5343 5342 5341 5340 5339 5338 5337 5337 5337 5337 5336 5335 5335 5334 5334
5401 5396 5394 5395 5393 5390 5416 5411 5406 5396 5393 5388 5386 5381 5378 5373 5366 5363 5362 5358 5355 5352 5348 5344 5342 5339 5336 5334 5332 5331 5330 5328 5327 5326 5325 5325 5324 5323 5323 5322 5321 5321 5320 5320
5396 5391 5389 5388 5388 5399 5404 5396 5387 5382 5381 5377 5373 5366 5360 5356 5354 5351 5350 5347 5343 5339 5335 5331 5328 5326 5323 5321 5319 5318 5316 5314 5314 5313 5312 5311 5310 5310 5309 5309 5308 5307 5306 5306
5382 5380 5378 5380 5381 5390 5397 5376 5373 5371 5367 5364 5358 5353 5348 5346 5343 5344 5339 5334 5329 5325 5322 5318 5315 5312 5310 5308 5306 5304 5302 5300 5300 5299 5298 5297 5296 5296 5295 5295 5294 5293 5293 5293
5367 5367 5368 5372 5374 5376 5367 5359 5361 5361 5364 5351 5347 5342 5337 5333 5331 5327 5323 5319 5314 5310 5307 5304 5301 5298 5295 5294 5293 5290 5288 5286 5286 5285 5285 5284 5283 5282 5282 5281 5280 5279 5279 5278
5365 5361 5360 5362 5364 5369 5347 5345 5344 5345 5338 5336 5333 5329 5324 5319 5314 5310 5307 5302 5299 5295 5292 5289 5286 5283 5281 5280 5279 5277 5274 5273 5272 5271 5270 5269 5269 5268 5268 5267 5266 5265 5264 5264
5362 5359 5358 5356 5358 5347 5334 5331 5327 5325 5322 5320 5317 5314 5309 5305 5301 5297 5293 5288 5285 5281 5278 5275 5272 5270 5268 5266 5265 5262 5260 5259 5258 5257 5255 5255 5254 5253 5253 5252 5251 5251 5250 5249
5348 5344 5345 5340 5340 5333 5325 5320 5315 5312 5309 5307 5303 5300 5297 5292 5288 5284 5280 5276 5272 5269 5265 5262 5259 5257 5254 5252 5251 5249 5248 5246 5245 5243 5241 5241 5239 5239 5238 5238 5238 5237 5236 5235
5337 5329 5330 5326 5323 5318 5314 5308 5304 5299 5296 5292 5290 5287 5283 5279 5275 5271 5267 5263 5259 5256 5252 5249 5245 5243 5241 5239 5237 5237 5235 5233 5231 5229 5227 5226 5226 5224 5224 5223 5223 5223 5223 5222
5317 5312 5314 5321 5310 5305 5303 5296 5292 5287 5282 5279 5276 5272 5269 5266 5262 5257 5253 5249 5245 5242 5239 5235 5232 5230 5227 5225 5224 5222 5221 5219 5217 5216 5214 5213 5212 5211 5210 5210 5210 5210 5210 5210